Regional Weather Roundup
Issued by NWS Charleston, SC

Current Version | Previous Version | Text Only | Print | Product List | Glossary Off
Versions: 1 2 3 4 5 6 7 8 9 10 11 12 13 14 15 16 17 18 19 20 21 22 23 24 25 26 27 28 29 30 31 32 33 34 35 36 37 38 39 40 41 42 43 44 45 46 47 48 49 50

000
ASUS42 KCHS 230325
RWRCHS

REGIONAL WEATHER ROUNDUP
NATIONAL WEATHER SERVICE CHARLESTON SC
1100 PM EDT TUE APR 22 2014

NOTE: "FAIR" INDICATES FEW OR NO CLOUDS BELOW 12,000 FEET WITH NO
SIGNIFICANT WEATHER AND/OR OBSTRUCTIONS TO VISIBILITY.

NOT ALL STATIONS ARE QUALITY CONTROLLED BY THE NATIONAL
WEATHER SERVICE. USE DATA WITH CAUTION...ESPECIALLY
DEWPOINT OBSERVATIONS.

SCZ027-030-031-034>040-042>050-230400-
...SOUTH CAROLINA...

CITY           SKY/WX    TMP DP  RH WIND       PRES   REMARKS
N CHARLESTON   LGT RAIN  67  62  84 W6        29.82R
WATERFRONT PRK   N/A     68 N/A N/A SW6         N/A
FORT JOHNSON     N/A     66  63  88 W7        29.86R
MOUNT PLEASANT FAIR      66  64  94 CALM      29.81S FOG
JOHNS ISLAND   MOCLDY    68  63  83 CALM      29.82F
PINOPOLIS        N/A     70  63  78 SW7       29.72R
MONCKS CORNER  FAIR      68  64  88 SW5       29.80S
SUMMERVILLE    NOT AVBL
BEAUFORT MCAS  CLOUDY    66  62  87 NW9       29.83F
BEAUFORT ARPT  LGT RAIN  64  63  94 W6        29.83S
HILTON HEAD IS CLOUDY    64  63  94 W6        29.85S
GEORGETOWN     NOT AVBL
WALTERBORO     CLOUDY    64 N/A N/A W7        29.83S
ORANGEBURG     CLOUDY    64  59  83 W6        29.81S
BARNWELL       FAIR      64  63  94 W7        29.83F
AIKEN          FAIR      61  61 100 SW6       29.85F
MANNING        FAIR      64 N/A N/A CALM      29.80S
KINGSTREE      NOT AVBL
COLUMBIA       MOCLDY    64  61  90 W7        29.80R
SUMTER         MOCLDY    64  61  91 W9        29.78S
FLORENCE       CLOUDY    65  60  84 SW7       29.77S
MYRTLE BEACH   CLOUDY    66  59  77 W7        29.78R
N MYRTLE BEACH CLOUDY    70  57  63 W9        29.75S

$$

GAZ063-065-086>088-099>101-113>116-118-119-134-136>141-150-230400-
...GEORGIA...

CITY           SKY/WX    TMP DP  RH WIND       PRES   REMARKS
SAVANNAH ARPT  LGT RAIN  65  63  93 W8        29.86S
HUNTER AAF     CLOUDY    64  64  98 W3        29.84S
FORT STEWART   CLOUDY    64  64 100 SW2       29.85S
STATESBORO     NOT AVBL
SYLVANIA       CLOUDY    66  63  90 CALM      29.85S FOG
CLAXTON        MOCLDY   N/A N/A N/A CALM      29.86F FOG
THOMSON        MOCLDY    61  61 100 CALM      29.88S
AUGUSTA-BUSH   MOCLDY    65  58  78 W6        29.83S
AUGUSTA-DANIEL MOCLDY    65  60  84 VRB5      29.84R
SWAINSBORO     CLOUDY    63  63 100 W5        29.87F FOG
VIDALIA        FOG       63  61  94 SW3       29.87S VSB 1/2
ALMA           PTCLDY    64  60  87 N3        29.88R
WAYCROSS       NOT AVBL
JESUP          FAIR      63  63 100 CALM      29.87F
BRUNSWICK      PTCLDY    68  61  77 W3        29.87S
SAINT SIMONS   LGT RAIN  69  60  73 N7        29.86R

$$

SCZ027-028-034-036>038-045-046-048>050-GAZ119-141-230400-
...LAKE AND SUPPLEMENTAL COASTAL OBSERVATIONS...

STATION/POSITION TIME  TEMP    WIND        PRES    WAVE   SWELL
                       AIR SEA DIR/SP/G            HT/PER HT/PER/DIR
                 (UTC) (F)     (DEG/KT/KT) (MB)    (FT/S) (FT/S/D)
UPR LAKE MARION  NOT AVBL
WINYAH BAY       0300   66     260/  6     1008.0S
LAKE MURRAY      0200   64     250/  5/  7 1008.5S
ACE BASIN NERRS  0300   68     270/  4     1010.0S
FORT PULASKI     NOT AVBL
SAPELO ISLAND    0300   68     330/  4     1011.0S

$$

ANZ835-935-AMZ111-154-330-350-352-354-374-450-454-472-230400-
...C-MAN AND BUOY OBSERVATIONS...

STATION/POSITION TIME  TEMP    WIND        PRES    WAVE   SWELL
                       AIR SEA DIR/SP/G            HT/PER HT/PER/DIR
                 (UTC) (F)     (DEG/KT/KT) (MB)    (FT/S) (FT/S/D)
FOLLY BEACH CMAN 0300   67     240/  6/  9 1010.1R
BUOY 41004       0300   69 70  250/ 14/ 16 1008.8R   4/ 5   2/ 8
BUOY 41008       0300   68 65  330/ 12/ 14 1010.6R   2/ 8   2/100/ 8
5E ST. MARYS GA  0300      68                N/A     2/10   2/ 90/11
FRYING PAN BUOY  0300   68 67  250/ 21/ 25 1006.6F   5/ 6   2/100/ 9
BUOY 41025       0300   72 76  240/ 23/ 29 1004.2R   6/ 6   3/ 90/ 9
CAPE LOOKOUT NC  0300   66     230/ 13/ 17 1005.4F
BUOY 41002       NOT AVBL
BUOY 41010       0300   74 75  230/  4/  8 1012.3S   5/ 9   5/ 40/ 9
BUOY 41012       NOT AVBL
ST AUGUSTINE FL  0300   69     260/  9/ 11 1012.5R
CAPERS NEARSHORE NOT AVBL
FRIPP NEARSHORE  0200   67     280/  8/ 10   N/A


$$



USA.gov is the U.S. government's official web portal to all federal, state and local government web resources and services.